www.pogodaiklimat.ru

Погода и климат >> Архив погоды >> Финляндия >> Йомала аэропорт


ПОГОДА в Йомала аэропорту

  • Прогноз погоды в Йомала аэропорту
  • Монитор погоды в Йомала аэропорту

АРХИВ ПОГОДЫ в Йомала аэропорту

Время (UTC), дата Ветер
(напр.,м/с)
 
Видим.   Явления Облачность Т
(С)
Тd
(С)
f
(%)
Тe
(С)
Тes
(С)
Комфортность P
(гПа)
Po
(гПа)
Тmin
(С)
Tmax
(С)
R
(мм)
R24
(мм)
S
(см)
16 16.08 Ю 6 45 км в посл. час дождь 10/0 1500 м
[]
+17.8 +15.0 84 +17 +17 1011.0 1010.6
17 16.08 Ю 6 40 км 9/9 300 м
[]
+17.9 +15.3 85 +17 +17 1010.8 1010.4
18 16.08 Ю 7 35 км 8/6 200 м
[]
+17.6 +15.8 89 +17 +17 1010.9 1010.5 +17.2 +18.6
19 16.08 Ю 6 30 км 9/6 200 м
[]
+17.5 +16.0 91 +17 +17 1011.0 1010.6
20 16.08 Ю 6 23 км 9/4 200 м
[]
+17.3 +16.3 94 +16 +16 1010.9 1010.5
21 16.08 Ю 5 18 км 9/8 100 м
[]
+17.3 +16.3 94 +17 +17 1010.9 1010.6
22 16.08 Ю 6 15 км 9/0 100 м
[]
+17.2 +16.3 94 +16 +16 1011.0 1010.6
23 16.08 Ю 5 14 км 9/0 100 м
[]
+16.8 +16.1 96 +16 +16 1010.9 1010.5
00 17.08 Ю 5 21 км 8/8 300 м
[]
+16.8 +15.8 94 +16 +16 1010.6 1010.3
01 17.08 Ю 5 17 км 9/0 100 м
[]
+16.8 +16.1 96 +16 +16 1010.5 1010.2
02 17.08 Ю 4 20 км 9/0 100 м
[]
+16.9 +16.1 95 +16 +16 1010.2 1009.8
03 17.08 Ю 5 26 км 10/10 100 м
[]
+17.0 +15.7 92 +16 +16 1010.0 1009.6
04 17.08 Ю 5 35 км 10/0 200 м
[]
+17.2 +15.5 90 +17 +17 1009.9 1009.5
05 17.08 Ю 3 35 км 10/0 200 м
[]
+17.6 +16.2 91 +18 +18 1009.9 1009.5
06 17.08 Ю 5 40 км 9/9 200 м
[]
+17.7 +16.3 92 +17 +17 1010.0 1009.6 +16.8 +17.9
07 17.08 ЮЗ 4 30 км 10/0 100 м
[]
+17.5 +16.3 93 +17 +19 1010.5 1010.1
08 17.08 ЮЗ 2 50 км 10/0 1000 м
[]
+17.8 +13.9 78 +18 +22 1011.0 1010.6
09 17.08 Ю 5 50 км 9/9
[]
+18.7 +13.1 70 +19 +20 1011.1 1010.7
10 17.08 Ю 8 45 км 9/1 300 м
[]
+18.4 +15.6 84 +18 +19 1011.2 1010.8
11 17.08 Ю 9 60 км 9/1 300 м
[]
+19.3 +15.8 80 +20 +21 1011.1 1010.7
12 17.08 Ю 10 50 км 8/4 300 м
[]
+19.3 +12.9 66 +20 +20 1010.9 1010.6
13 17.08 Ю 8 55 км 1/0
[]
+18.4 +15.0 81 +18 +19 1010.8 1010.4
14 17.08 Ю 8 50 км 6/5 300 м
[]
+18.1 +15.4 84 +17 +18 1010.4 1010.0
15 17.08 Ю 8 45 км 9/4 300 м
[]
+18.3 +16.0 86 +18 +18 1010.2 1009.9
16 17.08 Ю 7 50 км 8/4 2000 м
[]
+18.2 +15.5 84 +18 +18 1010.3 1009.9
17 17.08 Ю 6 50 км ясно +17.7 +13.2 75 +17 +17 1010.3 1010.0
18 17.08 Ю 7 40 км 6/4 200 м
[]
+17.4 +15.5 89 +16 +16 1010.3 1009.9 +17.3 +19.4
19 17.08 Ю 7 45 км 9/9 200 м
[]
+17.6 +15.7 89 +17 +17 1009.9 1009.5
20 17.08 Ю 7 40 км 10/0 200 м
[]
+17.6 +16.0 90 +17 +17 1009.7 1009.4
21 17.08 Ю 7 35 км 9/9 200 м
[]
+17.6 +16.1 91 +17 +17 1009.3 1008.9
22 17.08 Ю 8 22 км слаб. дождь 9/0 200 м
[]
+17.4 +16.3 93 +16 +16 1009.2 1008.8
23 17.08 Ю 7 27 км в посл. час дождь 9/4 200 м
[]
+17.4 +16.1 92 +16 +16 1009.0 1008.7
00 18.08 Ю 7 40 км 10/10 2000 м
[]
+17.6 +15.2 86 +17 +17 1008.6 1008.2
01 18.08 Ю 8 35 км в посл. час дождь 10/10 300 м
[]
+17.7 +15.1 85 +17 +17 1008.5 1008.1
02 18.08 Ю 8 13 км слаб. ливневой дождь 10/0 100 м
[]
+16.1 +15.0 93 +14 +14 1008.3 1007.9
03 18.08 Ю 6 30 км в посл. час дождь 10/10 300 м
[]
+16.9 +14.9 88 +16 +16 1007.8 1007.4
04 18.08 Ю 8 19 км слаб. ливневой дождь 10/0 600 м
[]
+16.6 +14.8 89 +15 +15 1007.7 1007.3
05 18.08 Ю 7 29 км 10/0 300 м
[]
+17.2 +15.1 87 +16 +16 1007.6 1007.2
06 18.08 Ю 7 16 км ливневой дождь 10/10 200 м
[]
+16.6 +15.6 94 +15 +15 1007.5 1007.2 +15.8 +17.8
07 18.08 Ю 7 30 км в посл. час дождь 10/10 200 м
[]
+16.6 +15.3 92 +15 +15 1007.5 1007.1
08 18.08 Ю 6 35 км 10/10 300 м
[]
+17.2 +15.1 87 +16 +16 1007.4 1007.0
09 18.08 Ю 7 45 км 10/10 600 м
[]
+18.1 +14.5 79 +18 +18 1007.3 1006.9
10 18.08 Ю 7 22 км слаб. ливневой дождь 9/6 600 м
[]
+18.3 +16.0 86 +18 +19 1007.4 1007.0
11 18.08 Ю 7 45 км в посл. час дождь 9/0 1000 м
[]
+18.3 +15.4 83 +18 +20 1007.3 1007.0
12 18.08 Ю 8 50 км 8/8 300 м
[]
+19.2 +15.4 79 +20 +20 1007.0 1006.7
13 18.08 ЮВ 7 50 км 9/0 1500 м
[]
+19.3 +15.5 79 +20 +22 1006.7 1006.4
14 18.08 ЮВ 7 40 км 9/5 1500 м
[]
+18.7 +16.2 85 +19 +20 1006.0 1005.7
15 18.08 ЮВ 6 40 км 9/4 1500 м
[]
+18.7 +15.8 83 +19 +20 1005.9 1005.6
16 18.08 Ю 7 40 км 10/0 1500 м
[]
+18.5 +15.4 82 +18 +19 1005.5 1005.1
17 18.08 Ю 7 35 км 9/9 1000 м
[]
+18.2 +15.9 86 +18 +18 1005.0 1004.6
18 18.08 Ю 6 26 км 10/3 200 м
[]
+18.0 +16.5 91 +17 +17 1005.0 1004.6 +16.6 +19.5
19 18.08 Ю 6 23 км 9/4 200 м
[]
+18.0 +16.5 91 +17 +17 1004.7 1004.4
20 18.08 Ю 5 7000 м дождь 10/9 100 м
[]
+17.6 +16.8 95 +17 +17 1004.5 1004.2
21 18.08 ЮВ 3 6000 м дождь 10/10 100 м
[]
+17.3 +16.7 96 +17 +17 1003.6 1003.3
22 18.08 ЮВ 6 13 км дождь 10/10 100 м
[]
+16.9 +15.9 94 +16 +16 1003.0 1002.6
23 18.08 Ю 5 9000 м сильн. дождь 10/10 200 м
[]
+16.5 +15.7 95 +16 +16 1002.3 1001.9
00 19.08 Ю 7 9000 м дождь 10/10 100 м
[]
+17.0 +16.2 95 +16 +16 1001.4 1001.0
01 19.08 Ю 7 16 км слаб. дождь 10/0 100 м
[]
+16.8 +16.1 96 +16 +16 1000.6 1000.2
02 19.08 Ю 6 15 км слаб. ливневой дождь 10/0 100 м
[]
+16.7 +16.0 96 +16 +16 1000.2 999.9
03 19.08 З 3 17 км слаб. дождь 10/10 100 м
[]
+15.3 +14.5 95 +15 +15 1000.5 1000.1
04 19.08 З 2 50 км в посл. час дождь 10/0 300 м
[]
+14.7 +13.6 93 +14 +14 1001.1 1000.7
05 19.08 ЮЗ 2 50 км 9/9 200 м
[]
+14.7 +13.4 92 +14 +14 1002.0 1001.7
06 19.08 ЮЗ 4 50 км 9/9 200 м
[]
+15.3 +13.8 91 +14 +14 1003.1 1002.7 +14.7 +18.1
07 19.08 ЮЗ 4 55 км 9/0 200 м
[]
+15.9 +13.6 86 +15 +17 1003.5 1003.1
08 19.08 ЮЗ 4 55 км 6/0 300 м
[]
+17.2 +13.9 81 +17 +20 1004.3 1004.0
09 19.08 ЮЗ 5 50 км 8/8 300 м
[]
+18.0 +13.5 75 +18 +19 1005.1 1004.7
10 19.08 З 4 65 км 5/0 600 м
[]
+18.0 +11.9 68 +18 +23 1005.8 1005.4
11 19.08 ЮЗ 5 60 км 1/1 600 м
[]
+18.7 +11.8 64 +19 +24 1006.6 1006.2
12 19.08 ЮЗ 5 50 км 3/3 600 м
[]
+19.1 +12.5 66 +20 +23 1007.4 1007.0
13 19.08 Ю 8 65 км ясно +19.1 +12.6 66 +19 +21 1007.9 1007.5
14 19.08 ЮЗ 7 55 км ясно +18.9 +13.5 71 +19 +21 1008.5 1008.1
15 19.08 Ю 8 50 км ясно +18.3 +14.2 77 +18 +18 1008.8 1008.4
16 19.08 Ю 8 40 км ясно +18.0 +14.1 78 +17 +17 1009.2 1008.9
17 19.08 ЮЗ 6 45 км ясно +17.7 +13.6 77 +17 +17 1009.5 1009.2
18 19.08 ЮЗ 6 40 км ясно +17.5 +13.6 78 +17 +17 1009.9 1009.6 +15.1 +19.6
19 19.08 ЮЗ 7 40 км 3/0 2000 м
[]
+17.1 +13.8 81 +16 +16 1010.3 1010.0
20 19.08 ЮЗ 5 40 км 9/0
[]
+17.4 +14.2 81 +17 +17 1010.6 1010.2
21 19.08 Ю 5 40 км 1/1
[]
+17.0 +14.6 86 +16 +16 1010.8 1010.4
22 19.08 ЮЗ 4 40 км ясно +16.6 +14.1 85 +16 +16 1011.0 1010.6
23 19.08 ЮЗ 3 45 км ясно +16.7 +13.4 81 +16 +16 1011.1 1010.7
00 20.08 ЮЗ 3 45 км ясно +16.5 +13.4 82 +16 +16 1011.5 1011.1
01 20.08 ЮЗ 3 50 км ясно +16.5 +12.1 75 +16 +16 1011.9 1011.5
02 20.08 ЮЗ 3 50 км ясно +15.9 +11.6 76 +15 +15 1012.6 1012.2
03 20.08 ЮЗ 3 50 км ясно +15.3 +11.9 80 +15 +15 1012.9 1012.5
04 20.08 ЮЗ 2 50 км ясно +15.6 +12.1 80 +16 +16 1013.6 1013.2
05 20.08 ЮЗ 3 50 км ясно +16.0 +12.3 79 +16 +16 1013.9 1013.6
06 20.08 ЮЗ 4 45 км ясно +16.7 +12.3 75 +16 +18 1014.4 1014.1 +15.2 +17.5
07 20.08 Ю 6 40 км ясно +17.1 +13.2 78 +16 +18 1014.6 1014.2
08 20.08 ЮЗ 7 40 км ясно +17.3 +13.5 78 +16 +18 1015.1 1014.8
09 20.08 Ю 7 40 км 1/1 300 м
[]
+17.7 +13.7 77 +17 +19 1015.4 1015.1
10 20.08 Ю 8 40 км 5/0 300 м
[]
+18.3 +14.7 80 +18 +19 1015.8 1015.5
11 20.08 Ю 8 35 км 4/0 300 м
[]
+18.3 +14.7 80 +18 +19 1016.0 1015.6
12 20.08 Ю 9 35 км ясно +18.6 +14.4 77 +18 +19 1016.2 1015.8
13 20.08 Ю 8 40 км ясно +18.2 +13.9 76 +18 +19 1016.3 1015.9
14 20.08 Ю 9 40 км 6/0 1000 м
[]
+17.6 +13.9 79 +16 +17 1016.6 1016.2
15 20.08 Ю 7 40 км ясно +17.9 +14.5 80 +17 +18 1016.6 1016.2
16 20.08 Ю 6 45 км 3/0 1000 м
[]
+17.8 +14.5 81 +17 +17 1016.7 1016.3
17 20.08 Ю 6 40 км ясно +17.4 +14.6 84 +17 +17 1016.9 1016.5
18 20.08 Ю 6 35 км 5/0
[]
+17.1 +14.7 86 +16 +16 1017.1 1016.8 +16.7 +18.6
19 20.08 ЮЗ 5 40 км 9/0
[]
+17.1 +14.3 84 +16 +16 1017.6 1017.2
20 20.08 ЮЗ 5 40 км ясно +17.2 +13.7 80 +17 +17 1017.8 1017.4
21 20.08 ЮЗ 2 50 км ясно +16.8 +13.0 78 +17 +17 1017.8 1017.4
22 20.08 ЮЗ 1 50 км ясно +15.8 +12.3 80 +16 +16 1018.1 1017.7
23 20.08 Ю 1 30 км ясно +14.3 +12.0 86 +15 +15 1018.6 1018.2
00 21.08 штиль 0 8000 м дымка ясно +12.7 +11.1 90 +12 +12 1019.0 1018.6
01 21.08 З 1 10 км ясно +11.3 +10.3 94 +11 +11 1019.2 1018.8
02 21.08 ЮЗ 1 600 м туман ясно +10.5 +9.7 95 +10 +10 1019.5 1019.1
03 21.08 Ю 1 21 км в посл. час туман 1/1 1000 м
[]
+10.7 +9.8 94 +10 +10 1019.9 1019.5
04 21.08 ЮЗ 1 7000 м в посл. час туман 1/0 1500 м
[]
+12.5 +11.0 91 +12 +13 1019.8 1019.4
05 21.08 Ю 1 50 км ясно +14.5 +12.0 85 +15 +16 1020.2 1019.9
06 21.08 ЮЗ 3 50 км ясно +16.1 +12.1 77 +16 +18 1020.4 1020.0 +10.2 +17.2
07 21.08 ЮЗ 4 55 км ясно +17.0 +12.5 75 +17 +20 1020.5 1020.1
08 21.08 ЮЗ 4 45 км ясно +17.3 +12.7 74 +17 +21 1020.5 1020.1
09 21.08 Ю 6 50 км ясно +17.5 +12.2 71 +17 +20 1020.6 1020.2
10 21.08 Ю 5 55 км ясно +18.1 +12.6 70 +18 +23 1020.4 1020.0
11 21.08 Ю 6 50 км ясно +18.1 +12.3 69 +18 +21 1020.3 1019.9
12 21.08 Ю 7 45 км ясно +18.5 +13.2 71 +18 +21 1020.1 1019.7
13 21.08 Ю 7 50 км ясно +18.2 +13.4 74 +18 +20 1019.8 1019.4
14 21.08 Ю 7 50 км ясно +18.1 +13.4 74 +17 +19 1019.8 1019.4
15 21.08 Ю 6 50 км 3/3 1000 м
[]
+18.2 +13.3 73 +18 +19 1019.7 1019.3
16 21.08 ЮЗ 4 50 км 1/0 1000 м
[]
+17.7 +13.9 78 +17 +18 1019.6 1019.2
17 21.08 ЮЗ 3 55 км 6/0 1000 м
[]
+17.4 +13.1 76 +17 +18 1019.8 1019.4
18 21.08 ЮЗ 2 50 км 9/9
[]
+16.9 +13.1 78 +17 +17 1019.9 1019.5 +16.1 +18.6
19 21.08 СЗ 1 45 км 9/9 600 м
[]
+16.0 +13.2 83 +17 +17 1020.4 1020.1
20 21.08 З 1 40 км в посл. час дождь 9/6 2000 м
[]
+14.2 +13.4 95 +14 +14 1020.4 1020.0
21 21.08 Ю 1 1900 м дымка 10/10 2000 м
[]
+13.4 +12.6 95 +13 +13 1020.6 1020.3
22 21.08 ЮЗ 1 45 км 3/1 1000 м
[]
+14.8 +12.3 85 +15 +15 1020.6 1020.3
23 21.08 З 2 35 км ясно +14.0 +11.7 86 +13 +13 1020.7 1020.3
00 22.08 ЮЗ 1 2200 м дымка ясно +12.1 +10.9 92 +12 +12 1020.9 1020.5
01 22.08 штиль 0 1800 м дымка ясно +12.6 +10.9 89 +12 +12 1021.2 1020.8
02 22.08 СЗ 1 1300 м туман ясно +9.3 +8.8 97 +9 +9 1021.5 1021.1
03 22.08 штиль 0 300 м туман ясно +8.8 +8.5 98 +8 +8 1021.8 1021.4
04 22.08 С 1 2200 м в посл. час туман ясно +8.8 +8.4 97 +8 +8 1022.1 1021.7
05 22.08 штиль 0 45 км в посл. час туман ясно +13.0 +12.1 94 +12 +14 1022.4 1022.1
06 22.08 З 2 50 км ясно +15.8 +13.5 86 +16 +18 1022.8 1022.4 +8.4 +16.9
07 22.08 З 2 65 км 3/3 300 м
[]
+16.3 +12.5 78 +16 +19 1023.0 1022.7
08 22.08 З 2 55 км 1/0 300 м
[]
+17.2 +12.2 72 +18 +24 1023.2 1022.9
09 22.08 ЮЗ 3 50 км ясно +16.6 +11.3 71 +16 +23 1023.7 1023.3
10 22.08 ЮЗ 5 50 км ясно +16.7 +12.0 74 +16 +21 1023.7 1023.4
11 22.08 ЮЗ 4 55 км ясно +17.6 +11.2 66 +17 +24 1023.6 1023.2
12 22.08 Ю 6 50 км 1/1 600 м
[]
+18.3 +12.6 69 +18 +21 1023.7 1023.3
13 22.08 Ю 6 50 км ясно +18.6 +11.2 62 +19 +21 1023.3 1023.0
14 22.08 Ю 7 45 км ясно +18.1 +13.8 76 +17 +19 1023.4 1023.0
15 22.08 Ю 7 50 км 1/0
[]
+17.3 +13.9 80 +16 +17 1023.0 1022.6
16 22.08 ЮЗ 6 50 км 4/3 1500 м
[]
+17.3 +14.3 83 +16 +17 1022.8 1022.4
17 22.08 ЮЗ 6 50 км 9/3 1500 м
[]
+17.4 +13.4 77 +17 +17 1022.4 1022.0
18 22.08 ЮЗ 5 50 км 6/3
[]
+17.2 +13.3 78 +17 +17 1022.3 1021.9 +15.7 +19.1
19 22.08 ЮЗ 5 50 км 10/0
[]
+17.1 +13.8 81 +16 +16 1022.4 1022.0
20 22.08 ЮЗ 4 45 км 10/10 1000 м
[]
+17.3 +13.5 78 +17 +17 1022.8 1022.4
21 22.08 ЮЗ 3 29 км слаб. дождь 10/0 2000 м
[]
+15.9 +12.6 81 +15 +15 1022.9 1022.5
22 22.08 Ю 2 21 км слаб. дождь 10/10 1000 м
[]
+14.1 +12.4 89 +14 +14 1022.5 1022.1
23 22.08 Ю 2 25 км слаб. дождь 10/0 1500 м
[]
+14.5 +12.7 89 +14 +14 1021.9 1021.5
00 23.08 ЮВ 2 27 км слаб. ливневой дождь 10/10 1500 м
[]
+14.5 +13.0 91 +14 +14 1021.3 1021.0
01 23.08 Ю 4 45 км в посл. час дождь 9/1 1000 м
[]
+14.7 +13.4 92 +13 +13 1020.5 1020.2
02 23.08 ЮЗ 4 45 км 9/1 300 м
[]
+15.8 +12.8 82 +15 +15 1020.0 1019.6
03 23.08 ЮЗ 4 45 км 4/4
[]
+15.9 +12.0 78 +15 +15 1019.9 1019.5
04 23.08 ЮЗ 4 50 км 6/0 600 м
[]
+15.6 +12.2 80 +15 +15 1019.9 1019.5
05 23.08 ЮЗ 4 45 км 8/0 300 м
[]
+15.7 +11.9 78 +15 +15 1019.7 1019.3
06 23.08 ЮЗ 5 50 км 5/5 300 м
[]
+16.4 +12.6 78 +15 +16 1019.4 1019.0 +13.7 +17.4
07 23.08 ЮЗ 5 45 км 1/0 300 м
[]
+17.1 +12.6 75 +16 +19 1019.2 1018.9
08 23.08 ЮЗ 7 50 км 4/1 300 м
[]
+17.4 +12.8 74 +16 +18 1019.0 1018.6
09 23.08 ЮЗ 6 45 км 9/9 2000 м
[]
+17.9 +12.9 73 +17 +18 1019.1 1018.7
10 23.08 ЮЗ 5 30 км слаб. дождь 10/0
[]
+16.8 +13.3 80 +16 +18 1018.6 1018.2
11 23.08 Ю 5 40 км в посл. час дождь 9/9 300 м
[]
+16.6 +14.0 85 +16 +16 1018.1 1017.7
12 23.08 ЮЗ 8 40 км 10/10 300 м
[]
+16.1 +12.7 80 +14 +14 1017.6 1017.2
13 23.08 ЮЗ 5 35 км слаб. ливневой дождь 10/0 200 м
[]
+16.3 +14.1 87 +15 +17 1017.0 1016.6
14 23.08 ЮЗ 5 35 км слаб. дождь 10/0 200 м
[]
+16.5 +14.8 90 +16 +17 1016.6 1016.2
15 23.08 ЮЗ 6 40 км слаб. ливневой дождь 9/9 200 м
[]
+16.7 +15.0 90 +16 +16 1016.3 1015.9
16 23.08 ЮЗ 4 40 км в посл. час дождь 9/0 200 м
[]
+17.3 +15.3 88 +17 +17 1016.3 1015.9

 

Местоположение метеостанции Йомала аэропорт (Финляндия): широта 60.12 долгота 19.90 высота над уровнем моря 5 м.

В архиве по умолчанию представлена погода в Йомала аэропорту за последнюю неделю. Архивные данные за месяц целиком и за предыдущие месяцы, начиная с января 2011 года, Вы можете получить, выбрав интересующий диапазон дат из раскрывающегося списка и нажав кнопку "Ввод!".


*Определитесь, кто Вы:
робот инопланетянин человек

Внимание! Время в таблицах - всемирное. Для получения местного времени необходимо прибавить поправку, которая равна 1 ч.

Смотрите также архив погоды в соседних городах и на ближайших метеорологических станциях:

Погода в Йомале (Финляндия) (8 км)
Погода в Лемланд Нихамн (Финляндия) (18 км)
Погода в Логнес Харбор (Финляндия) (22 км)
Погода на Хаммарланде (Финляндия) (47 км)
Погода в Содерарме (Швеция) (49 км)
Погода в Кумлинге (Финляндия) (50 км)
Погода в Кокар Богскар (Финляндия) (73 км)
Погода в Сванберге (Швеция) (78 км)
Погода в Свенска Хогарна (Швеция) (78 км)
Погода в Свенска Хогарна АМС (Швеция) (80 км)

Пояснения к столбцам:

Ветер - указаны скорость ветра в м/с - средняя за 10 мин, порывы в срок и между сроками (в фигурных скобках) и направление, откуда дует ветер: С - северный, СВ - северо-восточный, В - восточный, ЮВ - юго-восточный, Ю - южный, ЮЗ - юго-западный, З - западный, СЗ - северо-западный.
Видимость - горизонтальная дальность видимости в метрах или километрах. При видимости от 1 до 10 км при отсутствии осадков обычно наблюдается дымка, при ухудшении видимости до 1 км и менее - туман. В сухую погоду видимость может ухудшаться дымом, пылью или мглою.
Явления - указаны атмосферные явления, наблюдавшиеся в срок или в последний час перед сроком; фигурными скобками обозначены явления, наблюдавшиеся между сроками (за 1-3 часа до срока); квадратными скобками обозначены град или гололедные отложения с указанием их диаметра в мм.
Облачность - указаны через наклонную черту общая и нижняя облачность в баллах и высота нижней границы облаков в метрах; квадратными скобками обозначены формы облаков: Ci - перистые, Cs - перисто-слоистые, Cc - перисто-кучевые, Ac - высококучевые, As - высокослоистые, Sc - слоисто-кучевые, Ns - слоисто-дождевые, Cu - кучевые, Cb - кучево-дождевые. Подробнее классификацию облаков см. в Атласе облаков (PDF).
T - Температура воздуха - температура, измеренная на высоте 2 м над землей.
Td - Температура точки росы - температура, при понижении до которой содержащийся в воздухе водяной пар достигнет насыщения.
f - Относительная влажность воздуха - влажноcть воздуха, измеренная на высоте 2 м над землей.
Te - Эффективная температура - температура, которую ощущает одетый по сезону человек в тени. Характеристика душности погоды. При расчете учитывается влияние влажности воздуха и скорости ветра на теплоощущения человека.
Tes - Эффективная температура на солнце - температура, которую ощущает человек, с поправкой на солнечный нагрев. Характеристика знойности погоды. Зависит от высоты солнца над горизонтом, облачности и скорости ветра. Ночью, в пасмурную погоду, а также при ветре 12 м/с и более поправка равна нулю.
P - Атмосферное давление - приведенное к уровню моря атмосферное давление.
Po - Атмосферное давление - измеренное на уровне метеостанции атмосферное давление.
Tmin - Минимальная температура - минимум температуры воздуха на высоте 2 м над землей.
Tmax - Максимальная температура - максимум температуры воздуха на высоте 2 м над землей.
R - Количество осадков - Количество выпавших осадков за период времени, мм. При наведении курсора мыши на число - период времени, за который выпало указанное количество осадков.
R24 - Количество осадков - Количество выпавших осадков за 24 часа, мм.
S - Снежный покров - Высота снежного покрова, см. При наведении курсора мыши на число - состояние снежного покрова и степень покрытия местности в баллах.